STPSAT-6

Last updated on Wed Nov 05 2025 00:02:50 GMT+0000 (Coordinated Universal Time)

1 49817U 21118A 25308.51477167 .00000000 00000+0 00000+0 0 9996 2 49817 0.0176 74.9063 0002563 201.8172 200.7653 1.00268499 14323
UTC large
Height (km)
Speed (km/s)
/
Latitude / Longitude
Inclination (degrees)
Orbital Period (minutes)
Azimuth
Elevation
Range (km)
Doppler Factor

Next 0 passes for location: London (51.5072 / 0.1276)

Sorry there are no passes over London.